FW6519 Weather Reports


time (UTC)temp
C
wind
direction
speed
KPH
gust
KPH
rain 1hr
cm
rain 24hr
cm
rain mn
cm
humidity
%
barometer
mb
20260508053502 3 134 0.0 3.2 0.00 0.15 0.00 85 1014.7
20260508053002 3 134 0.0 0.0 0.00 0.15 0.00 85 1014.7
20260508052603 3 134 0.0 0.0 0.00 0.15 0.00 85 1014.7
20260508052100 3 134 0.0 0.0 0.00 0.15 0.00 84 1014.8
20260508051559 3 134 0.0 0.0 0.00 0.15 0.00 84 1014.8
20260508051059 3 134 0.0 0.0 0.00 0.15 0.00 84 1014.7
20260508050558 3 134 0.0 0.0 0.00 0.15 0.00 83 1014.7
20260508050058 3 134 0.0 0.0 0.00 0.15 0.00 83 1014.7
20260508045556 3 134 0.0 0.0 0.00 0.20 0.00 82 1014.6
20260508045057 3 134 0.0 0.0 0.00 0.20 0.00 82 1014.7
20260508044555 4 134 0.0 0.0 0.00 0.20 0.00 81 1014.6
20260508044054 4 134 0.0 0.0 0.00 0.20 0.00 81 1014.6
20260508043552 4 134 0.0 0.0 0.00 0.20 0.00 81 1014.5
20260508043101 5 134 0.0 0.0 0.00 0.20 0.00 80 1014.5
20260508042550 5 134 0.0 0.0 0.00 0.20 0.00 79 1014.5
20260508042049 5 134 0.0 0.0 0.00 0.20 0.00 79 1014.4
20260508041548 5 134 0.0 0.0 0.00 0.20 0.00 79 1014.4
20260508041047 5 134 0.0 0.0 0.00 0.20 0.00 78 1014.3
20260508040546 5 134 0.0 0.0 0.00 0.20 0.00 77 1014.3
20260508040044 5 134 0.0 0.0 0.00 0.20 0.00 76 1014.3
20260508035543 6 134 0.0 0.0 0.00 0.25 0.20 76 1014.3
20260508035042 6 134 0.0 0.0 0.00 0.25 0.20 74 1014.2
20260508034541 6 134 0.0 0.0 0.00 0.25 0.20 73 1014.2
20260508034039 6 134 0.0 0.0 0.00 0.25 0.20 72 1014.1
20260508033538 6 134 0.0 0.0 0.00 0.25 0.20 70 1014.0
20260508033038 7 134 0.0 0.0 0.00 0.25 0.20 70 1014.0
20260508032536 7 134 0.0 0.0 0.00 0.25 0.20 67 1014.0
20260508032038 7 134 0.0 0.0 0.00 0.25 0.20 66 1014.0
20260508031534 7 134 0.0 0.0 0.00 0.25 0.20 64 1013.9
20260508031034 7 134 0.0 0.0 0.00 0.25 0.20 62 1013.7
20260508030532 7 134 0.0 1.6 0.00 0.25 0.20 62 1013.8
20260508030037 7 134 0.0 1.6 0.00 0.25 0.20 60 1013.7
20260508025532 8 143 0.0 0.0 0.00 0.33 0.20 60 1013.7
20260508025030 8 143 0.0 0.0 0.00 0.33 0.20 59 1013.6
20260508024535 8 143 0.0 0.0 0.00 0.33 0.20 59 1013.5
20260508024029 8 143 0.0 0.0 0.00 0.33 0.20 58 1013.5
20260508023530 8 143 0.0 4.8 0.00 0.33 0.20 58 1013.5
20260508023030 8 136 0.0 4.8 0.00 0.33 0.20 57 1013.5
20260508022531 8 113 0.0 3.2 0.00 0.33 0.20 58 1013.4
20260508022032 8 86 0.0 3.2 0.00 0.33 0.20 57 1013.2
20260508021534 8 169 0.0 0.0 0.00 0.33 0.20 57 1013.2
20260508021031 8 147 0.0 0.0 0.00 0.33 0.20 57 1013.2
20260508020528 9 147 0.0 1.6 0.00 0.33 0.20 56 1013.1
20260508020027 9 147 0.0 1.6 0.00 0.33 0.20 57 1013.0
20260508015527 9 227 0.0 1.6 0.00 0.36 0.20 57 1012.9
20260508015027 9 227 0.0 3.2 0.00 0.36 0.20 55 1012.9
20260508014527 10 56 0.0 6.4 0.00 0.36 0.20 56 1012.9
20260508014027 10 323 1.6 6.4 0.00 0.36 0.20 57 1012.8
20260508013526 10 212 0.0 6.4 0.00 0.36 0.20 53 1012.8
20260508013036 10 225 0.0 6.4 0.00 0.36 0.20 55 1012.6
20260508012525 10 252 0.0 4.8 0.00 0.36 0.20 52 1012.6
20260508012025 10 240 0.0 4.8 0.00 0.36 0.20 51 1012.4
20260508011526 10 158 0.0 6.4 0.00 0.36 0.20 51 1012.4
20260508011026 10 251 1.6 4.8 0.00 0.36 0.20 50 1012.3
20260508010524 11 251 1.6 4.8 0.00 0.36 0.20 55 1012.2
20260508010025 11 91 0.0 8.0 0.00 0.36 0.20 51 1012.2
20260508005527 11 246 1.6 8.0 0.00 0.36 0.20 52 1012.2
20260508005026 11 350 1.6 4.8 0.00 0.36 0.20 52 1012.1
20260508004535 11 269 0.0 9.7 0.00 0.36 0.20 54 1012.1
20260508004023 11 263 0.0 4.8 0.00 0.36 0.20 54 1012.0
20260508003523 11 42 0.0 4.8 0.00 0.36 0.20 53 1011.9
20260508003024 11 145 0.0 4.8 0.00 0.36 0.20 54 1011.9
20260508002524 11 238 0.0 4.8 0.00 0.36 0.20 53 1011.8
20260508002023 11 153 0.0 3.2 0.00 0.36 0.20 50 1011.8
20260508001522 12 213 0.0 8.0 0.00 0.36 0.20 53 1011.6
20260508001022 12 271 1.6 6.4 0.00 0.36 0.20 50 1011.5
20260508000522 12 225 0.0 9.7 0.00 0.36 0.20 49 1011.4
20260508000021 12 247 3.2 9.7 0.00 0.36 0.20 47 1011.3
20260507235524 12 244 1.6 9.7 0.00 0.36 0.20 48 1011.3
20260507235023 12 291 1.6 12.9 0.00 0.36 0.20 49 1011.3
20260507234522 13 222 4.8 12.9 0.00 0.36 0.20 47 1011.3
20260507234022 13 180 3.2 12.9 0.00 0.36 0.20 48 1011.2
20260507233520 13 249 1.6 11.3 0.00 0.36 0.20 48 1011.2
20260507233033 13 269 3.2 11.3 0.00 0.36 0.20 48 1011.1
20260507232522 13 242 3.2 6.4 0.00 0.36 0.20 52 1011.1
20260507232019 13 69 1.6 6.4 0.00 0.36 0.20 49 1011.1
20260507231521 13 261 1.6 8.0 0.00 0.36 0.20 50 1011.0
20260507231021 13 223 3.2 8.0 0.00 0.36 0.20 50 1011.0
20260507230519 13 251 1.6 9.7 0.00 0.36 0.20 50 1011.0
20260507230019 13 91 0.0 9.7 0.00 0.36 0.20 50 1011.0
20260507225519 13 280 1.6 6.4 0.00 0.38 0.20 49 1010.8
20260507225019 13 179 0.0 8.0 0.00 0.38 0.20 51 1010.9
20260507224519 13 336 3.2 8.0 0.00 0.38 0.20 52 1010.8
20260507224019 13 65 1.6 8.0 0.00 0.38 0.20 48 1010.8
20260507223519 13 263 1.6 9.7 0.00 0.38 0.20 48 1010.8
20260507223018 14 252 0.0 11.3 0.00 0.38 0.20 47 1010.7
20260507222518 14 164 3.2 14.5 0.00 0.38 0.20 47 1010.8
20260507222018 15 90 4.8 14.5 0.00 0.38 0.20 48 1010.7
20260507221518 15 232 6.4 12.9 0.00 0.38 0.20 45 1010.7
20260507221015 15 227 1.6 12.9 0.00 0.38 0.20 50 1010.7
20260507220515 15 287 4.8 12.9 0.00 0.38 0.20 47 1010.6
20260507220115 15 229 4.8 11.3 0.00 0.38 0.20 48 1010.5
20260507215515 15 261 4.8 14.5 0.00 0.56 0.20 47 1010.5
20260507215014 15 74 4.8 14.5 0.00 0.56 0.20 45 1010.3
20260507214514 15 207 3.2 14.5 0.00 0.56 0.20 52 1010.3
20260507214018 15 62 1.6 14.5 0.00 0.56 0.20 49 1010.3
20260507213516 15 192 4.8 8.0 0.00 0.56 0.20 48 1010.3
20260507213014 15 32 1.6 12.9 0.00 0.56 0.20 49 1010.2
20260507212514 15 319 3.2 16.1 0.00 0.56 0.20 46 1010.2
20260507212013 15 242 6.4 16.1 0.00 0.56 0.20 49 1010.2
20260507211513 15 102 4.8 14.5 0.00 0.56 0.20 51 1010.2
20260507211013 15 277 6.4 14.5 0.00 0.56 0.20 47 1010.1
20260507210513 15 214 3.2 12.9 0.00 0.56 0.20 48 1010.1
20260507210031 15 58 4.8 19.3 0.00 0.56 0.20 48 1010.1
20260507205515 15 243 9.7 22.5 0.00 0.61 0.20 47 1010.0
20260507205013 15 237 6.4 22.5 0.00 0.61 0.20 47 1010.0
20260507204512 15 193 4.8 22.5 0.00 0.61 0.20 49 1010.0
20260507204012 15 235 3.2 14.5 0.00 0.61 0.20 51 1010.0
20260507203512 15 230 1.6 17.7 0.00 0.61 0.20 51 1010.0
20260507203011 15 57 3.2 17.7 0.00 0.61 0.20 47 1009.9
20260507202512 15 212 3.2 11.3 0.00 0.61 0.20 52 1010.0
20260507202010 15 308 3.2 14.5 0.00 0.61 0.20 47 1010.0
20260507201510 16 198 4.8 17.7 0.00 0.61 0.20 47 1010.1
20260507201010 16 230 3.2 17.7 0.00 0.61 0.20 49 1010.2
20260507200510 16 53 6.4 17.7 0.00 0.61 0.20 47 1010.2
20260507200010 16 213 8.0 14.5 0.00 0.61 0.20 51 1010.2
20260507195508 16 191 3.2 9.7 0.00 0.64 0.20 47 1010.2
20260507195007 15 162 3.2 12.9 0.00 0.64 0.20 53 1010.4
20260507194507 15 35 4.8 12.9 0.00 0.64 0.20 55 1010.5
20260507194005 15 216 3.2 11.3 0.00 0.64 0.20 51 1010.6
20260507193506 15 174 4.8 19.3 0.00 0.64 0.20 52 1010.6
20260507193006 15 257 8.0 19.3 0.00 0.64 0.20 51 1010.6
20260507192505 15 346 6.4 19.3 0.00 0.64 0.20 46 1010.5
20260507192005 15 234 8.0 19.3 0.00 0.64 0.20 48 1010.7
20260507191504 15 289 3.2 20.9 0.00 0.64 0.20 53 1010.5
20260507191004 15 231 8.0 20.9 0.00 0.64 0.20 52 1010.6
20260507190504 15 246 3.2 14.5 0.00 0.64 0.20 54 1010.6
20260507190005 15 223 3.2 19.3 0.00 0.64 0.20 56 1010.7
20260507185502 15 240 8.0 19.3 0.00 0.64 0.20 52 1010.7
20260507185002 15 153 3.2 16.1 0.00 0.64 0.20 54 1010.7
20260507184509 15 46 4.8 16.1 0.00 0.64 0.20 52 1010.6
20260507184100 15 244 4.8 16.1 0.00 0.64 0.20 54 1010.7
20260507183601 15 171 3.2 11.3 0.00 0.64 0.20 53 1010.8
20260507183059 15 306 3.2 19.3 0.00 0.64 0.20 56 1010.9
20260507182558 14 271 9.7 19.3 0.00 0.64 0.20 52 1010.9
20260507182058 15 212 3.2 19.3 0.00 0.64 0.20 56 1010.9
20260507181557 15 103 4.8 16.1 0.00 0.64 0.20 55 1010.8
20260507181056 14 241 3.2 16.1 0.00 0.64 0.20 54 1010.9
20260507180559 15 157 3.2 11.3 0.00 0.64 0.20 61 1011.0
20260507180100 14 22 1.6 16.1 0.00 0.64 0.20 60 1011.0
20260507175558 13 233 4.8 16.1 0.00 0.69 0.20 65 1011.0
20260507175055 13 196 4.8 9.7 0.00 0.69 0.20 58 1011.0
20260507174556 13 207 3.2 8.0 0.00 0.69 0.20 60 1011.1
20260507174053 13 232 3.2 11.3 0.00 0.69 0.20 60 1011.1
20260507173554 13 123 3.2 16.1 0.00 0.69 0.20 55 1011.3
20260507173053 14 350 6.4 16.1 0.00 0.69 0.20 57 1011.3
20260507172552 14 288 6.4 16.1 0.00 0.69 0.20 56 1011.1
20260507172053 14 233 6.4 12.9 0.00 0.69 0.20 55 1011.2
20260507171552 15 227 4.8 12.9 0.00 0.69 0.20 54 1011.4
20260507171051 15 271 3.2 9.7 0.00 0.69 0.20 64 1011.4
20260507170550 14 28 3.2 20.9 0.00 0.69 0.20 62 1011.4
20260507170048 14 209 3.2 22.5 0.00 0.69 0.20 60 1011.5
20260507165546 13 259 1.6 14.5 0.00 0.71 0.20 66 1011.7
20260507165045 13 216 3.2 14.5 0.00 0.71 0.20 65 1011.8
20260507164544 13 167 4.8 14.5 0.00 0.71 0.20 64 1011.8
20260507164045 13 236 6.4 12.9 0.00 0.71 0.20 64 1011.9
20260507163543 12 242 3.2 9.7 0.00 0.71 0.20 67 1012.0
20260507163042 12 51 0.0 11.3 0.00 0.71 0.20 66 1012.1
20260507162543 12 21 3.2 14.5 0.00 0.71 0.20 67 1012.1
20260507162041 12 269 6.4 14.5 0.00 0.71 0.20 64 1012.2
20260507161547 12 344 3.2 16.1 0.00 0.71 0.20 65 1012.2
20260507161042 12 222 8.0 16.1 0.00 0.71 0.20 65 1012.1
20260507160542 12 288 1.6 12.9 0.00 0.71 0.20 63 1012.1
20260507160042 12 237 0.0 14.5 0.00 0.71 0.20 70 1012.2
20260507155541 12 238 6.4 14.5 0.00 0.76 0.20 64 1012.3
20260507155041 12 214 3.2 16.1 0.00 0.76 0.20 63 1012.3
20260507154541 12 106 1.6 8.0 0.00 0.76 0.20 68 1012.4
20260507154040 12 36 3.2 8.0 0.00 0.76 0.20 66 1012.4
20260507153537 12 79 4.8 12.9 0.00 0.76 0.20 65 1012.4
20260507153042 12 32 3.2 12.9 0.00 0.76 0.20 65 1012.4
20260507152536 12 86 0.0 8.0 0.00 0.76 0.20 67 1012.4
20260507152035 12 200 3.2 11.3 0.00 0.76 0.20 67 1012.4
20260507151533 12 42 1.6 11.3 0.00 0.76 0.20 65 1012.3
20260507151033 12 44 1.6 12.9 0.00 0.76 0.20 67 1012.4
20260507150531 12 35 3.2 12.9 0.00 0.76 0.20 67 1012.4
20260507150031 11 28 1.6 11.3 0.00 0.76 0.20 70 1012.3
20260507145530 11 49 4.8 9.7 0.00 0.81 0.20 61 1012.4
20260507145029 11 5 1.6 9.7 0.00 0.81 0.20 69 1012.4
20260507144527 11 42 4.8 9.7 0.00 0.81 0.20 67 1012.5
20260507144025 11 355 1.6 9.7 0.00 0.81 0.20 75 1012.6
20260507143525 10 201 1.6 9.7 0.00 0.81 0.20 78 1012.7
20260507143026 10 236 0.0 6.4 0.00 0.81 0.20 81 1012.9
20260507142522 10 261 3.2 6.4 0.00 0.81 0.20 80 1013.0
20260507142021 10 227 1.6 6.4 0.00 0.81 0.20 83 1013.0
20260507141520 10 136 0.0 6.4 0.00 0.81 0.20 85 1013.1
20260507141019 10 281 0.0 6.4 0.00 0.81 0.20 85 1013.1
20260507140519 10 271 0.0 0.0 0.00 0.81 0.20 87 1013.1
20260507140018 10 287 0.0 0.0 0.00 0.81 0.20 89 1013.2
20260507135517 9 287 0.0 0.0 0.00 0.89 0.20 88 1013.2
20260507135017 9 248 0.0 0.0 0.00 0.89 0.20 89 1013.2
20260507134516 9 10 0.0 0.0 0.00 0.89 0.20 90 1013.2
20260507134015 9 239 0.0 0.0 0.00 0.89 0.20 91 1013.3
20260507133516 9 329 0.0 0.0 0.00 0.89 0.20 91 1013.3
20260507133018 8 329 0.0 0.0 0.00 0.89 0.20 91 1013.3
20260507132515 8 262 0.0 0.0 0.00 0.89 0.20 92 1013.3
20260507132014 8 260 0.0 0.0 0.00 0.89 0.20 92 1013.3
20260507131519 8 243 0.0 0.0 0.00 0.89 0.20 93 1013.4
20260507131014 8 155 0.0 0.0 0.00 0.89 0.20 94 1013.4
20260507130516 8 240 0.0 0.0 0.00 0.89 0.20 94 1013.4
20260507130022 8 226 0.0 0.0 0.00 0.89 0.20 95 1013.3
20260507125515 8 237 0.0 0.0 0.00 0.94 0.20 95 1013.3
20260507125017 8 240 0.0 0.0 0.00 0.94 0.20 95 1013.3
20260507124519 8 241 0.0 0.0 0.00 0.94 0.20 95 1013.4
20260507124013 8 216 0.0 0.0 0.00 0.94 0.20 95 1013.4
20260507123514 8 188 0.0 0.0 0.00 0.94 0.20 95 1013.4
20260507123013 8 173 0.0 0.0 0.00 0.94 0.20 95 1013.4
20260507122512 8 173 0.0 0.0 0.00 0.94 0.20 95 1013.5
20260507122012 8 173 0.0 0.0 0.00 0.94 0.20 95 1013.4
20260507121512 8 173 0.0 0.0 0.00 0.94 0.20 95 1013.5
20260507121012 8 190 0.0 0.0 0.00 0.94 0.20 95 1013.5
20260507120512 8 190 0.0 0.0 0.00 0.94 0.20 95 1013.5
20260507120019 8 205 0.0 0.0 0.00 0.94 0.20 95 1013.5
20260507115510 8 205 0.0 0.0 0.00 1.30 0.20 95 1013.4
20260507115013 8 205 0.0 0.0 0.00 1.30 0.20 95 1013.3
20260507114509 8 205 0.0 0.0 0.00 1.30 0.20 95 1013.2
20260507114018 8 205 0.0 0.0 0.00 1.30 0.20 95 1013.1
20260507113511 8 205 0.0 0.0 0.00 1.30 0.20 95 1013.1
20260507113008 8 265 0.0 0.0 0.00 1.30 0.20 95 1013.0
20260507112507 8 246 0.0 0.0 0.00 1.30 0.20 95 1012.9
20260507112007 8 246 0.0 1.6 0.00 1.30 0.20 95 1012.8
20260507111507 8 249 0.0 1.6 0.00 1.30 0.20 95 1012.7
20260507111006 8 255 0.0 0.0 0.00 1.30 0.20 95 1012.6
20260507110505 8 255 0.0 0.0 0.00 1.30 0.20 95 1012.5
20260507110005 8 255 0.0 0.0 0.00 1.30 0.20 95 1012.5
20260507105508 8 255 0.0 0.0 0.00 1.70 0.20 95 1012.4
20260507105004 8 255 0.0 0.0 0.00 1.70 0.20 95 1012.4
20260507104503 8 255 0.0 0.0 0.00 1.70 0.20 95 1012.4
20260507104006 8 255 0.0 0.0 0.00 1.70 0.20 95 1012.3
20260507103502 8 255 0.0 0.0 0.00 1.70 0.20 95 1012.3
20260507103002 8 255 0.0 0.0 0.00 1.70 0.20 95 1012.3
20260507102502 8 255 0.0 1.6 0.00 1.70 0.20 95 1012.4
20260507102003 8 255 0.0 4.8 0.00 1.70 0.20 95 1012.4
20260507101502 8 255 0.0 4.8 0.00 1.70 0.20 95 1012.4
20260507101002 8 304 0.0 0.0 0.00 1.70 0.20 95 1012.3
20260507100502 8 306 0.0 0.0 0.00 1.70 0.20 95 1012.3
20260507100001 8 306 0.0 0.0 0.00 1.70 0.20 95 1012.2
20260507095501 8 306 0.0 0.0 0.00 2.24 0.20 95 1012.1
20260507095002 8 306 0.0 0.0 0.00 2.24 0.20 95 1012.1
20260507094501 8 306 0.0 0.0 0.00 2.24 0.20 95 1012.2
20260507094103 8 307 0.0 0.0 0.00 2.24 0.20 95 1012.2
20260507093600 8 307 0.0 0.0 0.00 2.24 0.20 95 1012.1
20260507093111 7 307 0.0 0.0 0.00 2.24 0.20 95 1012.0
20260507092603 8 307 0.0 0.0 0.00 2.24 0.20 95 1011.9
20260507092059 8 307 0.0 0.0 0.00 2.24 0.20 95 1011.9
20260507091559 8 307 0.0 0.0 0.00 2.24 0.20 95 1012.0
20260507091102 8 307 0.0 0.0 0.00 2.24 0.20 95 1011.8
20260507090558 8 307 0.0 0.0 0.00 2.24 0.20 95 1011.9
20260507090058 8 307 0.0 0.0 0.00 2.24 0.20 95 1011.9
20260507085600 8 307 0.0 0.0 0.00 2.26 0.20 94 1012.1
20260507085100 8 307 0.0 0.0 0.00 2.26 0.20 95 1012.0
20260507084602 8 307 0.0 0.0 0.00 2.26 0.20 95 1012.0
20260507084058 8 307 0.0 0.0 0.00 2.26 0.20 94 1012.1
20260507083557 8 307 0.0 0.0 0.00 2.26 0.20 94 1012.1
20260507083101 8 307 0.0 0.0 0.03 2.26 0.20 94 1012.2
20260507082559 8 307 0.0 0.0 0.03 2.26 0.20 94 1012.1
20260507082102 8 27 0.0 0.0 0.03 2.26 0.20 94 1012.0
20260507081557 8 27 0.0 0.0 0.03 2.26 0.20 94 1011.9
20260507081058 8 27 0.0 0.0 0.05 2.26 0.20 94 1012.1
20260507080559 8 27 0.0 0.0 0.05 2.26 0.20 94 1012.1
20260507080113 8 27 0.0 0.0 0.05 2.26 0.20 94 1012.0
20260507075556 8 27 0.0 0.0 0.05 2.26 0.20 94 1012.1
20260507075056 8 19 0.0 6.4 0.05 2.26 0.20 94 1012.2
20260507074556 8 19 0.0 6.4 0.05 2.26 0.20 94 1012.1
20260507074055 8 46 3.2 14.5 0.05 2.26 0.20 94 1012.0
20260507073553 8 9 3.2 14.5 0.08 2.26 0.20 94 1011.9
20260507073052 8 42 1.6 12.9 0.05 2.24 0.18 95 1012.0
20260507072551 8 323 1.6 6.4 0.05 2.24 0.18 95 1011.9
20260507072052 8 10 0.0 1.6 0.05 2.24 0.18 95 1011.8
20260507071608 8 360 0.0 3.2 0.05 2.24 0.18 95 1011.8
20260507071050 8 40 0.0 3.2 0.03 2.21 0.15 95 1011.9
20260507070550 8 40 0.0 0.0 0.03 2.21 0.15 95 1011.8
20260507070052 8 22 0.0 0.0 0.03 2.21 0.15 95 1011.8
20260507065550 8 22 0.0 0.0 0.03 2.21 0.15 95 1011.8
20260507065050 8 22 0.0 0.0 0.03 2.21 0.15 95 1011.9
20260507064551 8 22 0.0 0.0 0.05 2.21 0.15 95 1011.8
20260507064050 8 22 0.0 0.0 0.05 2.21 0.15 95 1011.8
20260507063551 8 22 0.0 0.0 0.03 2.18 0.13 95 1012.0
20260507063049 8 22 0.0 0.0 0.05 2.18 0.13 95 1011.9
20260507062549 8 22 0.0 0.0 0.05 2.18 0.13 95 1011.9
20260507062052 8 22 0.0 0.0 0.05 2.18 0.13 94 1011.8
20260507061555 8 23 0.0 0.0 0.05 2.18 0.13 94 1011.8
20260507061049 8 23 0.0 0.0 0.05 2.18 0.13 94 1011.9
20260507060548 8 23 0.0 3.2 0.08 2.18 0.13 94 1011.9
20260507060047 8 48 0.0 4.8 0.08 2.18 0.13 94 1012.0
20260507055547 8 355 1.6 6.4 0.08 2.18 0.13 94 1012.1
20260507055047 9 21 1.6 9.7 0.08 2.18 0.13 94 1012.2
20260507054547 9 31 1.6 9.7 0.05 2.16 0.10 95 1012.3
20260507054046 9 44 0.0 0.0 0.05 2.16 0.10 95 1012.3